Location: Oberwangen
(47.4286°N, 8.9679°E)
Time: 08:39:13
(UTC+00:00)

Cosmos 1447 Rocket - Pass Details

Date: 28 October 2021
Orbit: 953 x 996 km, 82.9° (Epoch: 27 November)

Event Time Altitude Azimuth Distance (km) Brightness Sun altitude
Rises 16:59:28 0° 355° (N) 3,644 7.4 -8.4°
Reaches altitude 10° 17:02:07 10° 2° (N) 2,693 6.7 -8.8°
Maximum altitude 17:07:58 44° 74° (ENE) 1,298 4.7 -9.8°
Drops below altitude 10° 17:13:48 10° 146° (SE) 2,686 6.6 -10.8°
Sets 17:16:25 0° 152° (SSE) 3,632 7.3 -11.2°
